Location: Banksville Park
(38.5557°N, 75.1182°W)
Time: 16:44:34
(UTC+00:00)

USA 305 - Pass Details

Date: 19 September 2020
Orbit: 566 x 580 km, 54.0° (Epoch: 28 October)

Event Time Altitude Azimuth Distance (km) Brightness Sun altitude
Exits shadow 08:47:13 25° 338° (NNW) 1,180 4.5 -23.4°
Drops below altitude 10° 08:50:25 10° 27° (NNE) 1,867 6.1 -22.9°
Sets 08:53:00 0° 41° (NE) 2,765 7.4 -22.4°
